User: anonymous   Login
Location: Cluny
(50.9333°N, 112.8167°W)
Time: 01:29:36
(UTC-07:00)
Language:

Cosmos 1743 Rocket - Orbit

View from above orbital plane
View from above orbital plane
View from above satellite
View from above satellite

Ground track
Ground track

The orbit data is extracted from the following two-line orbital elements,

1 16720U 86034B   17022.55077884  .00000095  00000-0  86427-5 0  9999
2 16720  82.5531  17.2740 0019204 218.5626 281.2436 14.83271435657674
Epoch (UTC): 22 January 2017 13:13:07
Eccentricity: 0.0019204
inclination: 82.5531°
perigee height: 605 km
apogee height: 632 km
right ascension of ascending node: 17.2740°
argument of perigee: 218.5626°
revolutions per day: 14.83271435
mean anomaly at epoch: 281.2436°
orbit number at epoch: 65767

The dashed part of the orbit path shows where the satellite is in the earth's shadow,  

DLR